DW8923 Weather Reports


Display with metric or nautical units.
time (UTC)temp
F
wind
direction
speed
MPH
gust
MPH
rain 1hr
in
rain 24hr
in
rain mn
in
humidity
%
barometer
mb
20260903034559 82 105 3.0 9.0 0.00 0.00 0.00 74 1011.3
20260903033051 83 62 2.0 9.0 0.00 0.00 0.00 73 1011.2
20260903031552 82 116 2.0 8.0 0.00 0.00 0.00 72 1010.9
20260903030051 81 107 2.0 8.0 0.00 0.00 0.00 75 1010.6
20260903024553 83 109 2.0 5.0 0.00 0.00 0.00 70 1010.5
20260903023112 87 107 0.0 0.0 0.00 0.00 0.00 61 1010.0
20260903021549 88 107 0.0 2.0 0.00 0.00 0.00 60 1009.6
20260903020148 89 38 0.0 2.0 0.00 0.00 0.00 54 1009.4
20260903014547 90 59 0.0 2.0 0.00 0.00 0.00 53 1009.2
20260903013050 91 60 0.0 2.0 0.00 0.00 0.00 52 1009.1
20260903011546 91 62 1.0 2.0 0.00 0.00 0.00 51 1009.2
20260903010045 92 22 0.0 1.0 0.00 0.00 0.00 50 1009.0
20260903004543 93 156 0.0 1.0 0.00 0.00 0.00 49 1009.1
20260903003043 94 156 0.0 1.0 0.00 0.00 0.00 48 1009.1
20260903001542 94 156 0.0 2.0 0.00 0.00 0.00 48 1009.0
20260903000043 95 156 0.0 2.0 0.00 0.00 0.00 45 1009.0
20260902234541 95 155 2.0 4.0 0.00 0.00 0.00 44 1009.0
20260902233041 96 107 0.0 3.0 0.00 0.00 0.00 43 1009.0
20260902231542 96 166 2.0 7.0 0.00 0.00 0.00 42 1009.1
20260902230042 99 225 2.0 9.0 0.00 0.00 0.00 41 1009.0
20260902224538 100 30 2.0 5.0 0.00 0.00 0.00 38 1008.8
20260902223037 99 30 1.0 7.0 0.00 0.00 0.00 39 1008.8
20260902221536 98 59 2.0 5.0 0.00 0.00 0.00 40 1008.9
20260902220033 98 298 0.0 9.0 0.00 0.00 0.00 40 1009.1
20260902214531 99 20 2.0 5.0 0.00 0.00 0.00 40 1009.2
20260902213032 99 275 1.0 7.0 0.00 0.00 0.00 38 1009.3
20260902211529 101 342 2.0 5.0 0.00 0.00 0.00 36 1009.2
20260902210026 99 190 0.0 5.0 0.00 0.00 0.00 39 1009.3
20260902204523 98 271 2.0 5.0 0.00 0.00 0.00 39 1009.6
20260902203020 98 217 1.0 5.0 0.00 0.00 0.00 40 1009.9
20260902201522 98 325 1.0 3.0 0.00 0.00 0.00 42 1010.1
20260902200015 98 271 0.0 4.0 0.00 0.00 0.00 42 1010.3
20260902194520 97 296 1.0 6.0 0.00 0.00 0.00 43 1010.6
20260902193011 98 257 1.0 7.0 0.00 0.00 0.00 43 1010.8
20260902191513 100 247 1.0 8.0 0.00 0.00 0.00 40 1010.9
20260902190007 101 109 1.0 6.0 0.00 0.00 0.00 39 1011.1
20260902184503 100 197 1.0 8.0 0.00 0.00 0.00 40 1011.4
20260902183001 99 219 2.0 5.0 0.00 0.00 0.00 41 1011.7
20260902181559 100 79 1.0 6.0 0.00 0.00 0.00 42 1011.9
20260902180055 98 263 1.0 5.0 0.00 0.00 0.00 43 1012.4
20260902174550 98 227 0.0 4.0 0.00 0.00 0.00 42 1012.6
20260902173049 97 300 2.0 7.0 0.00 0.00 0.00 45 1012.9
20260902171559 96 304 0.0 5.0 0.00 0.00 0.00 47 1013.0
20260902170040 96 273 2.0 6.0 0.00 0.00 0.00 46 1013.2
20260902164538 96 311 3.0 8.0 0.00 0.00 0.00 45 1013.4
20260902163036 95 273 1.0 8.0 0.00 0.00 0.00 48 1013.5
20260902161532 93 137 1.0 5.0 0.00 0.00 0.00 53 1013.6
20260902160028 92 159 1.0 2.0 0.00 0.00 0.00 54 1013.7
20260902154526 90 302 2.0 5.0 0.00 0.00 0.00 56 1013.6
20260902153019 88 225 1.0 4.0 0.00 0.00 0.00 59 1013.8
20260902151515 87 26 0.0 3.0 0.00 0.00 0.00 62 1013.7
20260902150015 85 360 0.0 3.0 0.00 0.00 0.00 66 1013.7
20260902144507 83 5 1.0 3.0 0.00 0.00 0.00 69 1013.8
20260902143006 82 242 1.0 4.0 0.00 0.00 0.00 75 1013.8
20260902141503 81 207 1.0 3.0 0.00 0.00 0.00 75 1013.7
20260902140004 80 271 0.0 2.0 0.00 0.00 0.00 81 1013.6
20260902134501 80 218 0.0 2.0 0.00 0.00 0.00 82 1013.6
20260902133108 77 230 0.0 1.0 0.00 0.00 0.00 84 1013.5
20260902131558 75 229 0.0 0.0 0.00 0.00 0.00 86 1013.3
20260902130058 74 229 0.0 2.0 0.00 0.00 0.00 87 1013.1
20260902124557 74 36 0.0 0.0 0.00 0.00 0.00 86 1013.0
20260902123108 74 36 0.0 0.0 0.00 0.00 0.00 85 1013.0
20260902121555 74 36 0.0 0.0 0.00 0.00 0.00 86 1013.0
20260902120054 74 36 0.0 2.0 0.00 0.00 0.00 86 1012.9
20260902114555 74 17 2.0 4.0 0.00 0.00 0.00 86 1012.9
20260902113054 74 178 0.0 0.0 0.00 0.00 0.00 84 1012.7
20260902111552 75 178 0.0 0.0 0.00 0.00 0.00 84 1012.6
20260902104554 75 120 0.0 2.0 0.00 0.00 0.00 84 1012.5
20260902103048 75 120 0.0 1.0 0.00 0.00 0.00 83 1012.5
20260902101547 75 120 0.0 0.0 0.00 0.00 0.00 82 1012.6
20260902100045 76 120 0.0 0.0 0.00 0.00 0.00 81 1012.7
20260902094545 76 120 0.0 0.0 0.00 0.00 0.00 81 1012.7
20260902093043 77 120 0.0 0.0 0.00 0.00 0.00 81 1012.8
20260902091539 77 120 0.0 0.0 0.00 0.00 0.00 81 1012.8
20260902090038 77 120 0.0 0.0 0.00 0.00 0.00 80 1012.9
20260902084542 77 120 0.0 0.0 0.00 0.00 0.00 80 1012.8
20260902083035 77 120 0.0 3.0 0.00 0.00 0.00 79 1012.8
20260902081536 78 93 0.0 2.0 0.00 0.00 0.00 79 1012.9
20260902080035 78 93 0.0 1.0 0.00 0.00 0.00 78 1012.9
20260902074630 78 93 0.0 0.0 0.00 0.00 0.00 76 1013.0
20260902073033 79 93 0.0 0.0 0.00 0.00 0.00 75 1013.0
20260902071534 79 93 0.0 1.0 0.00 0.00 0.00 75 1013.0
20260902070027 79 93 0.0 2.0 0.00 0.00 0.00 74 1013.2
20260902064526 80 86 0.0 3.0 0.00 0.00 0.00 73 1013.2
20260902063030 80 83 0.0 4.0 0.00 0.00 0.00 71 1013.2
20260902061539 81 90 1.0 3.0 0.00 0.00 0.00 70 1013.3
20260902060025 81 56 0.0 2.0 0.00 0.00 0.00 69 1013.3
20260902054520 82 99 0.0 0.0 0.00 0.00 0.00 68 1013.1
20260902053021 82 99 0.0 1.0 0.00 0.00 0.00 66 1013.0
20260902051512 82 99 0.0 2.0 0.00 0.00 0.00 66 1012.9
20260902050014 83 124 0.0 3.0 0.00 0.00 0.00 66 1013.0
20260902044510 83 60 0.0 3.0 0.00 0.00 0.00 66 1013.1
20260902043014 83 93 0.0 2.0 0.00 0.00 0.00 66 1013.0
20260902041509 84 117 0.0 0.0 0.00 0.00 0.00 64 1012.8
20260902040009 85 117 0.0 1.0 0.00 0.00 0.00 62 1012.8